Location: Monroe
(41.9160°N, 83.3980°W)
Time: 18:16:41
(UTC-04:00)

ISS - All Passes

Search period start: 16 October 2017 00:00
Search period end: 26 October 2017 00:00
Orbit: 401 x 408 km, 51.6° (Epoch: 17 October)

Date Brightness Start Highest point End Pass type
(mag) Time Alt. Az. Time Alt. Az. Time Alt. Az.
16 Oct - 12:50:38 10° SW 12:53:53 76° SE 12:57:09 10° ENE daylight
16 Oct - 14:28:00 10° WNW 14:30:39 22° NNW 14:33:19 10° NE daylight
16 Oct - 16:06:01 10° NW 16:08:01 15° N 16:10:00 10° NE daylight
16 Oct - 17:42:26 10° NW 17:45:18 27° NNE 17:48:10 10° E daylight
16 Oct - 19:18:44 10° WNW 19:21:55 50° SW 19:25:06 10° SE visible
17 Oct - 11:58:39 10° SSW 12:01:42 38° SE 12:04:45 10° ENE daylight
17 Oct - 13:35:16 10° W 13:38:13 31° NNW 13:41:11 10° NE daylight
17 Oct - 15:13:26 10° NW 15:15:27 15° N 15:17:28 10° NE daylight
17 Oct - 16:50:17 10° NW 16:52:51 20° NNE 16:55:23 10° ENE daylight
17 Oct - 18:26:25 10° NW 18:29:42 85° NNE 18:32:58 10° ESE daylight
17 Oct - 20:04:38 10° WSW 20:05:43 11° SW 20:06:47 10° SSW visible
18 Oct - 11:07:05 10° S 11:09:34 20° SE 11:12:04 10° E daylight
18 Oct - 12:42:41 10° WSW 12:45:50 48° NNW 12:49:01 10° NE daylight
18 Oct - 14:20:40 10° NW 14:22:54 17° N 14:25:08 10° NNE daylight
18 Oct - 15:58:05 10° NNW 16:00:19 17° N 16:02:33 10° NE daylight
18 Oct - 17:34:12 10° NW 17:37:23 47° NNE 17:40:34 10° ESE daylight
18 Oct - 19:11:07 10° W 19:13:39 21° SW 19:16:12 10° S visible
19 Oct - 10:16:39 10° SE 10:17:31 11° SE 10:18:24 10° ESE daylight
19 Oct - 11:50:16 10° SW 11:53:30 86° NW 11:56:47 10° NE daylight
19 Oct - 13:27:49 10° WNW 13:30:22 20° NNW 13:32:55 10° NE daylight
19 Oct - 15:05:44 10° NW 15:07:45 15° N 15:09:46 10° NE daylight
19 Oct - 16:42:01 10° NW 16:44:59 30° NNE 16:47:56 10° E daylight
19 Oct - 18:18:25 10° WNW 18:21:31 39° SW 18:24:36 10° SSE daylight
20 Oct - 10:58:07 10° SW 11:01:15 48° SE 11:04:25 10° ENE daylight
20 Oct - 12:35:01 10° W 12:37:52 27° NNW 12:40:44 10° NE daylight
20 Oct - 14:13:10 10° NW 14:15:09 15° N 14:17:08 10° NE daylight
20 Oct - 15:49:51 10° NW 15:52:30 22° NNE 15:55:09 10° ENE daylight
20 Oct - 17:26:00 10° WNW 17:29:17 78° SW 17:32:32 10° SE daylight
21 Oct - 10:06:20 10° SSW 10:09:04 25° SE 10:11:50 10° ENE daylight
21 Oct - 11:42:20 10° W 11:45:26 40° NNW 11:48:32 10° NE daylight
21 Oct - 13:20:25 10° NW 13:22:33 16° N 13:24:42 10° NNE daylight
21 Oct - 14:57:38 10° NNW 14:59:58 18° NNE 15:02:17 10° ENE daylight
21 Oct - 16:33:43 10° NW 16:36:57 57° NNE 16:40:11 10° ESE daylight
21 Oct - 18:10:55 10° W 18:13:08 17° SW 18:15:21 10° S daylight
22 Oct - 09:15:15 10° SSE 09:16:57 14° SE 09:18:41 10° E daylight
22 Oct - 10:49:48 10° WSW 10:53:02 70° NNW 10:56:18 10° NE daylight
22 Oct - 12:27:33 10° WNW 12:29:58 19° NNW 12:32:24 10° NNE daylight
22 Oct - 14:05:18 10° NNW 14:07:22 15° N 14:09:26 10° NE daylight
22 Oct - 15:41:30 10° NW 15:44:32 35° NNE 15:47:35 10° E daylight
22 Oct - 17:18:02 10° WNW 17:20:59 31° SW 17:23:55 10° SSE daylight
23 Oct - 09:57:31 10° SW 10:00:43 62° SE 10:03:57 10° ENE daylight
23 Oct - 11:34:40 10° WNW 11:37:25 24° NNW 11:40:10 10° NE daylight
23 Oct - 13:12:46 10° NW 13:14:44 15° N 13:16:42 10° NE daylight
23 Oct - 14:49:18 10° NW 14:52:03 24° NNE 14:54:48 10° ENE daylight
23 Oct - 16:25:30 10° WNW 16:28:45 62° SW 16:31:58 10° SE daylight
24 Oct - 09:05:33 10° SSW 09:08:28 31° SE 09:11:25 10° ENE daylight
24 Oct - 10:41:53 10° W 10:44:54 34° NNW 10:47:57 10° NE daylight
24 Oct - 12:20:02 10° NW 12:22:05 15° N 12:24:09 10° NNE daylight
24 Oct - 13:57:03 10° NNW 13:59:29 19° NNE 14:01:55 10° ENE daylight
24 Oct - 15:33:08 10° NW 15:36:24 70° NNE 15:39:40 10° ESE daylight
24 Oct - 17:10:45 10° W 17:12:30 14° SW 17:14:13 10° SSW daylight
25 Oct - 08:14:06 10° S 08:16:17 17° SE 08:18:29 10° E daylight
25 Oct - 09:49:15 10° WSW 09:52:28 57° NNW 09:55:41 10° NE daylight
25 Oct - 11:27:09 10° WNW 11:29:28 18° NNW 11:31:46 10° NNE daylight
25 Oct - 13:04:43 10° NNW 13:06:52 16° N 13:09:00 10° NE daylight
25 Oct - 14:40:52 10° NW 14:43:59 40° NNE 14:47:06 10° E daylight
25 Oct - 16:17:34 10° WNW 16:20:20 25° SW 16:23:05 10° SSE daylight
